HST 1 20580U 90037B 26206.60338394 .00005840 00000+0 18102-3 0 9997 2 20580 28.4719 177.9281 0001789 205.9997 154.0510 15.31150436794464 POLAR 1 23802U 96013A 26205.00845484 .00000228 00000+0 00000+0 0 9992 2 23802 79.9050 226.6142 6507374 207.8131 92.3130 1.29845983145337 SWAS 1 25560U 98071A 26206.17955953 .00004005 00000+0 25352-3 0 9991 2 25560 69.8958 129.5309 0007228 218.4666 141.5984 15.09804695503003 CXO 1 25867U 99040B 26209.04610948 .00000804 00000+0 00000+0 0 9991 2 25867 56.7072 115.6151 7770389 309.8621 0.6215 0.37793771 17474 XMM-NEWTON 1 25989U 99066A 26207.24358605 .00000084 00000+0 00000+0 0 9993 2 25989 64.2780 282.4824 4663641 64.1910 0.0496 0.50127282 23206 TERRA 1 25994U 99068A 26206.59181525 .00000374 00000+0 85145-4 0 9993 2 25994 97.9435 254.6110 0003678 102.4657 58.9752 14.61130276415216 CLUSTER II-FM7 (SAMBA) 1 26410U 00041A 26206.06296891 .00027982 -17735-4 00000+0 0 9990 2 26410 149.7691 57.6888 9095425 275.3504 359.4742 0.44881598 20489 CLUSTER II-FM8 (TANGO) 1 26464U 00045B 26204.45555558 .00018622 -85769-5 00000+0 0 9996 2 26464 149.9685 58.6107 9097770 276.0907 2.0462 0.44424205 20475 ODIN 1 26702U 01007A 26206.10531528 .00581465 14842-3 12524-2 0 9993 2 26702 97.3659 249.9721 0007546 170.3035 189.8390 15.98435452395408 TIMED 1 26998U 01055B 26206.27691446 .00001227 00000+0 11474-3 0 9991 2 26998 74.0678 158.3217 0002412 289.2269 70.8655 14.95363205336519 CORIOLIS 1 27640U 03001A 26206.45957716 .00000112 00000+0 72921-4 0 9991 2 27640 98.7141 212.7619 0015194 101.8099 258.4783 14.19954217219650 SORCE 1 27651U 03004A 26206.59080740 .00002932 00000+0 21927-3 0 9996 2 27651 39.9919 42.5372 0018297 324.0712 35.8851 15.03887597277685 MOST 1 27843U 03031D 26206.29585473 .00000068 00000+0 51397-4 0 9992 2 27843 98.7057 213.4914 0010618 137.4735 222.7267 14.21329365196125 SCISAT 1 1 27858U 03036A 26206.44687830 .00000632 00000+0 85284-4 0 9999 2 27858 73.9299 95.3259 0006865 160.1798 199.9647 14.81488875237114 SWIFT 1 28485U 04047A 26206.43067351 .00062719 00000+0 44363-3 0 9994 2 28485 20.5510 249.0632 0002619 135.9226 224.1429 15.72202007192882 HINODE (SOLAR-B) 1 29479U 06041A 26205.99799701 .00000717 00000+0 13130-3 0 9993 2 29479 98.0550 221.5936 0017895 163.5306 196.6485 14.68668669 60423 SHIJIAN-6 02A (SJ-6 02A) 1 29505U 06046A 26206.60918623 .00006743 00000+0 34126-3 0 9996 2 29505 97.6346 247.9697 0003560 38.1482 322.0003 15.17346106 78090 SHIJIAN-6 02B (SJ-6 02B) 1 29506U 06046B 26206.60063148 .00001234 00000+0 10014-3 0 9990 2 29506 97.7144 235.4201 0012350 297.8560 62.1412 15.01453753 76509 FGRST (GLAST) 1 33053U 08029A 26206.59664467 .00003384 00000+0 12169-3 0 9995 2 33053 25.5829 297.7525 0008503 62.0070 298.1328 15.24123668 1557 SDO 1 36395U 10005A 26205.23547819 -.00000101 00000+0 00000+0 0 9997 2 36395 34.7257 85.7785 0001540 47.6832 151.1586 1.00277666 60431 CRYOSAT 2 1 36508U 10013A 26206.60789013 .00000090 00000+0 21515-4 0 9993 2 36508 92.0352 286.6417 0002555 98.4037 261.7460 14.51900419863655 X-SAT 1 37389U 11015C 26206.55753623 .00000242 00000+0 12040-3 0 9997 2 37389 98.3536 181.7584 0012942 227.3535 132.6555 14.25216452793148 GCOM-W1 (SHIZUKU) 1 38337U 12025A 26206.36019753 .00000448 00000+0 10954-3 0 9991 2 38337 98.2025 146.3384 0001279 81.8538 31.1661 14.57097536754598 NUSTAR 1 38358U 12031A 26206.66670139 .00007661 00000+0 41539-3 0 9992 2 38358 6.0261 105.4183 0008865 316.1611 216.1513 15.09123594 1304 NEOSSAT 1 39089U 13009D 26206.25821123 .00000163 00000+0 70962-4 0 9999 2 39089 98.4196 25.3894 0011964 129.2252 230.9998 14.35838450702205 BRITE-AUSTRIA 1 39091U 13009F 26206.44682664 .00000188 00000+0 78354-4 0 9998 2 39091 98.4014 24.9398 0011234 122.5626 237.6647 14.36555912702544 IRIS 1 39197U 13033A 26206.54843570 .00001110 00000+0 13288-3 0 9998 2 39197 97.9315 45.7045 0024082 190.1143 169.9591 14.85954427706074 HISAKI (SPRINT-A) 1 39253U 13049A 26206.57314211 .00000094 00000+0 40611-4 0 9997 2 39253 29.7218 24.8519 0136897 327.9571 31.2738 13.55547306636637 CASSIOPE 1 39265U 13055A 26206.56695637 .00019728 -46031-6 21135-3 0 9995 2 39265 80.9134 19.9939 0280980 292.6371 64.5368 15.27808637673521 STSAT-3 1 39422U 13066G 26206.59708799 .00002887 00000+0 21922-3 0 9999 2 39422 97.6226 175.8671 0008639 263.6628 96.3613 15.02945721689971 SWARM B 1 39451U 13067A 26206.56012094 .00003817 00000+0 13533-3 0 9998 2 39451 87.7467 330.6617 0002260 93.5914 266.5593 15.28774369689102 SWARM A 1 39452U 13067B 26206.54053597 .00009513 00000+0 16816-3 0 9996 2 39452 87.3298 41.9789 0002779 74.3884 285.7683 15.50158030712196 SWARM C 1 39453U 13067C 26206.53971405 .00009764 00000+0 17415-3 0 9997 2 39453 87.3300 40.5596 0003225 88.7553 271.4077 15.49905873712159 BRITE-CA1 (TORONTO) 1 40020U 14033L 26206.35797339 .00001198 00000+0 18648-3 0 9997 2 40020 97.9781 334.5922 0079208 153.8499 206.6742 14.72740948647833 OCO 2 1 40059U 14035A 26206.54138735 .00000396 00000+0 97887-4 0 9993 2 40059 98.2022 147.2526 0001384 80.8278 279.3077 14.57138968641636 BRITE-PL2 (HEWELIUSZ) 1 40119U 14049B 26206.59944504 .00002168 00000+0 20489-3 0 9991 2 40119 97.9125 318.9042 0013431 348.2890 11.8016 14.94716300647181 MMS 1 1 40482U 15011A 26206.58335648 -.00001734 00000+0 00000+0 0 9998 2 40482 72.5230 348.3558 8296014 168.2132 255.3825 0.28345383 1397 MMS 2 1 40483U 15011B 26206.58335648 -.00001735 00000+0 00000+0 0 9990 2 40483 72.5270 348.3547 8298835 168.2158 255.3681 0.28345354 1399 MMS 3 1 40484U 15011C 26206.58335648 -.00001734 00000+0 00000+0 0 9990 2 40484 72.5254 348.3664 8297148 168.2223 255.3467 0.28344183 1369 MMS 4 1 40485U 15011D 26206.58335648 -.00001734 00000+0 00000+0 0 9991 2 40485 72.5208 348.3499 8297107 168.2322 255.3433 0.28344195 1399 ASTROSAT 1 40930U 15052A 26206.43655162 .00001648 00000+0 11851-3 0 9994 2 40930 5.9959 240.0310 0008262 224.5813 135.3651 14.82566343585518 DAMPE 1 41173U 15078A 26206.60359397 .00001666 00000+0 58393-4 0 9995 2 41173 97.4574 212.2632 0010496 305.7644 54.2620 15.30875950590423 PISAT 1 41784U 16059B 26206.42415658 .00001092 00000+0 19274-3 0 9993 2 41784 97.8199 205.2379 0030568 83.7026 276.7660 14.69045850525351 HXMT (HUIYAN) 1 42758U 17034A 26206.61138872 .00005459 00000+0 26608-3 0 9990 2 42758 43.0157 329.0387 0030791 26.7392 333.5037 15.18771258503501 FLYING LAPTOP 1 42831U 17042G 26206.57731368 .00001625 00000+0 13015-3 0 9994 2 42831 97.4851 0.6788 0018987 359.3888 0.7311 15.01363692492216 ZHANGHENG 1-01 (CSES-1) 1 43194U 18015C 26206.62966291 .00006879 00000+0 31481-3 0 9992 2 43194 97.6896 13.0568 0017055 130.5544 229.7179 15.20724343470482 SALSAT 1 46495U 20068K 26206.46920955 .00007256 00000+0 25013-3 0 9993 2 46495 97.8864 211.8813 0010316 158.0440 202.1243 15.30293295321211 IXPE 1 49954U 21121A 26206.58335648 .00010904 00000+0 58599-3 0 9998 2 49954 0.2310 26.9538 0007101 303.3079 210.5283 15.10570483 5635 SMILE 1 69123U 26109A 26194.95939329 .00000936 00000+0 00000+0 0 9996 2 69123 70.0512 206.6048 8313707 286.9544 0.1879 0.47500629 65